Showing default

GONETS M 08 (M18), 40061

Orbit data source: Space-Track

GONETS M 08 (M18), 40061 is a payload satellite owned by Gonets (CIS) in LEO that was launched on Thu, 03 Jul 2014 UTC via an ROKOT launch vehicle from the Plesetsk Missile And Space Complex (PKMTR). Payload-class satellites include a variety of spacecraft equipped with specific instruments for various scientific and technological missions. These include communications satellites like Starlink; space stations such as the ISS; scientific satellites like the Hubble; Earth observation satellites from companies like Planet Labs, Umbra, and HawkEye 360; GPS; miniature CubeSats for education and research; and military/defense satellites.

Loading next visibility...
Identifier
40061, 2014-036A
Orbit
LEO
Country
Flag of CISCIS
Related business
Manufacturer
Resehetnev ISS
Mission
Operational Civil Communications
Bus & Motor
STRELA-3M, Unknown motor
Mass
280 kg wet, 280 kg dry
Launch date (UTC)
2014-07-03 (12 years ago)
Launch vehicle
ROKOT
Launch site
Plesetsk Missile And Space Complex (PKMTR)
Object type
Payload
Rocket body
Debris
Shape & HBR
Cyl + 1 Ant, 3.5 m
Radar Cross Section
1.798 m², Large (>1 m²)

Expand to show TLE details & history
Last TLE update: 23 hours ago

TLE from 23 hours ago
0 GONETS M 08 (M18)
1 40061U 14036A   26172.47400997  .00000078  00000-0  48836-3 0  9990
2 40061  82.5117 304.9179 0030835 138.7275 221.6144 12.42985774542989
Epoch: 2026-06-21T11:22Z
TLE epoch observation values (Epoch: 2026-06-21T11:22:34.461Z)
Latitude
0.00003°
Longitude
-135.39945°
Altitude
1,514.855 km
Speed
7.099 km/s
True Right ascension
20h 19m 40s
True Declination
0° 00' 00"
Sunlit
Object was in full shadow at epoch
Visualization orbit readout
Latitude
Unknown
Longitude
Unknown
Altitude
Unknown
Speed
Unknown
Apparent Right ascension
Unknown
Apparent Declination
Unknown
Sunlit
N/A
Visualization observer readout
Local Sidereal Time
21:49:10
Azimuth
Unknown
Elevation
Unknown
Doppler factor
Unknown
Orbital elements
Apogee altitude
1,515.588 km
Perigee altitude
1,467.057 km
Semi-major axis
7,869.459 km
Eccentricity
0.00308
Inclination
82.5117°
RAAN
304.9179°
Arg. of periapsis
138.7275°
True anomaly
221.38041°
Mean anomaly
221.6144°
Eccentric anomaly
221.49734°
Mean motion
3.10904 °/min
Orbital period
115.79 mins
BSTAR
0.00048836
Loading maneuver chart data...
Computing Atmospheric mass density...
Loading historical data...
Loading historical data...
Loading historical data...
Loading historical data...
Loading historical data...
Loading historical data...
Loading historical data...
Other satellites on launch #36 in the year 2014 (2014-07-03 UTC)

Documentation

Showing up to 5 results
|